Johannesburg, Sudáfrica

9:42 AM SAST en Noviembre 25, 2017 (GMT +0200)
Johannesburg

Tiempo Historia de FAOR - Septiembre, 2017

Change the Weather History Date:

Jueves, Septiembre 14, 2017

  Actual Average Record
Temperature  
Temperatura media 72 ° F -  
Temperatura máxima 85 ° F 71 ° F - ()
Temperatura mínima 60 ° F 48 ° F - ()
Cooling Degree Days 8    
Growing Degree Days 22 (Base 50)    
Moisture  
Punto de rocío 22 ° F    
Average Humidity 13    
Maximum Humidity 23    
Minimum Humidity 4    
Precipitación  
Precipitación 0.00 pul 0.02 pul - ()
Presión al nivel del mar  
Presión al nivel del mar 30.28 pul    
Viento  
Velocidad del viento 6 mph ()    
Velocidad máxima del viento 12 mph    
Max Gust Speed -    
Visibilidad 7.5 Millas    
Eventos      
T = Trace of Precipitation, MM = Missing Value Source: Averaged Metar Reports

Daily Weather History Graph

Daily Weather History Graph

Search for Another Location

Airport or City:

Trip Planner

Search our weather history database for the weather conditions in past years. The results will help you decide how hot, cold, wet, or windy it might be!

Date:

Astronomía

Sep. 14, 2017 Salida Puesta
Hora real 6:05 AM SAST 6:00 PM SAST
Crepúsculo civil 5:42 AM SAST 6:23 PM SAST
Crepúsculo náutico 5:15 AM SAST 6:49 PM SAST
Crepúsculo astronómico 4:49 AM SAST 7:16 PM SAST
Luna 1:16 AM SAST (9/14) 12:22 PM SAST (9/14)
Horas de luz 12h 40m
Horas de luz
11h 54m
Cuarto menguante, 37% of the Moon is Illuminated
Sep 14
Cuarto menguante
Sep 20
Nueva
Sep 28
Cuarto creciente
Oct 5
Luna llena
Oct 12
Cuarto menguante

Hourly Weather History & Observations

Hora (SAST) Temp. Punto de rocío Humedad Presión Visibilidad Wind Dir Velocidad del viento Velocidad de ráfagas Precip Eventos Condiciones
12:00 AM 69.8 ° F 19.4 ° F 15% 30.30 pul - NO 4.6 mph - N/A   Despejado
1:00 AM 69.8 ° F 21.2 ° F 16% 30.30 pul - ONO 5.8 mph - N/A   Despejado
2:00 AM 64 ° F 22 ° F 11%  pul 6 mi NNO 5.8 mph - -  
2:00 AM 69.8 ° F 19.4 ° F 15% 30.30 pul - Oeste 5.8 mph - N/A   Despejado
3:00 AM 69.8 ° F 19.4 ° F 15% 30.27 pul - Oeste 4.6 mph - N/A   Despejado
4:00 AM 69.8 ° F 19.4 ° F 15% 30.27 pul - Oeste 4.6 mph - N/A   Despejado
4:30 AM 69.8 ° F 19.4 ° F 15% 30.27 pul - Oeste 4.6 mph - N/A   Despejado
5:00 AM 60.8 ° F 23.0 ° F 23% 30.27 pul - Norte 8.1 mph - N/A   Despejado
5:10 AM 64.4 ° F 23.0 ° F 21% 30.27 pul - NNO 6.9 mph - N/A   Despejado
6:00 AM 64.4 ° F 21.2 ° F 19% 30.30 pul - NO 6.9 mph - N/A   Despejado
7:00 AM 66.2 ° F 21.2 ° F 18% 30.30 pul - NNO 6.9 mph - N/A   Despejado
8:00 AM 68 ° F 25 ° F 10%  pul 6 mi NNE 5.8 mph - -  
8:00 AM 71.6 ° F 21.2 ° F 15% 30.33 pul - Norte 8.1 mph - N/A   Despejado
8:30 AM 71.6 ° F 23.0 ° F 16% 30.33 pul - NO 8.1 mph - N/A   Despejado
9:00 AM 75.2 ° F 23.0 ° F 14% 30.33 pul - NNO 9.2 mph - N/A   Despejado
9:30 AM 77.0 ° F 21.2 ° F 12% 30.33 pul - NNO 9.2 mph - N/A   Despejado
10:00 AM 78.8 ° F 23.0 ° F 13% 30.33 pul - NNO 10.4 mph - N/A   Despejado
10:30 AM 78.8 ° F 24.8 ° F 14% 30.33 pul - NNO 9.2 mph - N/A   Despejado
11:00 AM 80.6 ° F 23.0 ° F 12% 30.33 pul - NO 10.4 mph - N/A   Despejado
11:30 AM 82.4 ° F 24.8 ° F 12% 30.30 pul - Oeste 8.1 mph - N/A   Despejado
12:00 PM 82.4 ° F 23.0 ° F 11% 30.30 pul - ONO 8.1 mph - N/A   Despejado
1:30 PM 82.4 ° F 23.0 ° F 11% 30.27 pul - SO 11.5 mph - N/A   Despejado
2:00 PM 84 ° F 22 ° F 4%  pul 12 mi SO 4.6 mph - -  
2:00 PM 84.2 ° F 24.8 ° F 11% 30.27 pul - NO 11.5 mph - N/A   Despejado
3:00 PM 84.2 ° F 21.2 ° F 10% 30.24 pul - OSO 5.8 mph - N/A   Despejado
3:30 PM 82.4 ° F 21.2 ° F 10% 30.24 pul - Variable 3.5 mph - N/A   Despejado
4:00 PM 84.2 ° F 21.2 ° F 10% 30.24 pul - NO 6.9 mph - N/A   Despejado
4:30 PM 82.4 ° F 21.2 ° F 10% 30.24 pul - Variable 2.3 mph - N/A   Despejado
5:00 PM 82.4 ° F 21.2 ° F 10% 30.24 pul - SO 3.5 mph - N/A   Despejado
5:30 PM 80.6 ° F 23.0 ° F 12% 30.24 pul - NO 8.1 mph - N/A   Despejado
6:00 PM 80.6 ° F 23.0 ° F 12% 30.24 pul - Variable 5.8 mph - N/A   Despejado
7:00 PM 77.0 ° F 24.8 ° F 14% 30.27 pul - ONO 6.9 mph - N/A   Despejado
7:30 PM 77.0 ° F 24.8 ° F 14% 30.27 pul - ONO 5.8 mph - N/A   Despejado
8:00 PM 74 ° F 24 ° F 7%  pul 6 mi NNO 8.1 mph - -  
8:00 PM 75.2 ° F 24.8 ° F 15% 30.27 pul - ONO 6.9 mph - N/A   Despejado
8:30 PM 75.2 ° F 23.0 ° F 14% 30.27 pul - Oeste 8.1 mph - N/A   Despejado
9:00 PM 73.4 ° F 23.0 ° F 15% 30.27 pul - Oeste 5.8 mph - N/A   Despejado
9:30 PM 75.2 ° F 24.8 ° F 15% 30.27 pul - ONO 5.8 mph - N/A   Despejado
10:00 PM 71.6 ° F 24.8 ° F 17% 30.27 pul - ONO 4.6 mph - N/A   Despejado
11:00 PM 73.4 ° F 23.0 ° F 15% 30.27 pul - ONO 5.8 mph - N/A   Despejado